Aurora, OR

10:45 PM PST on February 17, 2018 (GMT -0800)
Aurora State

Weather History for KUAO - February, 2013

Change the Weather History Date:

Tuesday, February 26, 2013

  Actual Average Record
Temperature  
Mean Temperature 42 °F -  
Max Temperature 49 °F - 59 °F (2008)
Min Temperature 35 °F - 19 °F (2011)
Degree Days  
Heating Degree Days 23    
Month to date heating degree days 563  
Since 1 July heating degree days 3093  
Cooling Degree Days 0    
Month to date cooling degree days 0  
Year to date cooling degree days 0  
Moisture  
Dew Point 35 °F    
Average Humidity 76    
Maximum Humidity 92    
Minimum Humidity 60    
Precipitation  
Precipitation 0.00 in - 1.19 in (1958)
Month to date precipitation 1.61  
Year to date precipitation 3.62  
Sea Level Pressure  
Sea Level Pressure 30.34 in    
Wind  
Wind Speed 3 mph (South)    
Max Wind Speed 9 mph    
Max Gust Speed 13 mph    
Visibility 10 miles    
Events      
T = Trace of Precipitation, MM = Missing Value Source: NWS Daily Summary

Daily Weather History Graph

Daily Weather History Graph

Search for Another Location

Airport or City:

Trip Planner

Search our weather history database for the weather conditions in past years. The results will help you decide how hot, cold, wet, or windy it might be!

Date:

Astronomy

Feb. 26, 2013 Rise Set
Actual Time 6:53 AM PST 5:54 PM PST
Civil Twilight 6:24 AM PST 6:24 PM PST
Nautical Twilight 5:49 AM PST 6:58 PM PST
Astronomical Twilight 5:15 AM PST 7:32 PM PST
Moon 7:23 PM PST (2/26) 6:54 AM PST (2/26)
Length of Visible Light 12h 00m
Length of Day
11h 00m
Full, 99% of the Moon is Illuminated
Feb 26
Full
Mar 4
Last Quarter
Mar 11
New
Mar 19
First Quarter
Mar 27
Full

Hourly Weather History & Observations

Time (PST) Temp. Windchill Dew Point Humidity Pressure Visibility Wind Dir Wind Speed Gust Speed Precip Events Conditions
12:53 AM 37.0 °F 34.5 °F 34.0 °F 89% 30.41 in 10.0 mi SSW 3.5 mph - N/A   Mostly Cloudy
1:53 AM 37.0 °F 32.4 °F 34.0 °F 89% 30.40 in 10.0 mi SSW 5.8 mph - N/A   Mostly Cloudy
2:53 AM 37.0 °F 33.3 °F 35.1 °F 93% 30.40 in 10.0 mi SSW 4.6 mph - N/A   Overcast
3:53 AM 36.0 °F - 34.0 °F 93% 30.40 in 10.0 mi Calm Calm - N/A   Overcast
4:53 AM 37.0 °F - 35.1 °F 93% 30.40 in 10.0 mi Calm Calm - N/A   Overcast
5:53 AM 36.0 °F - 34.0 °F 93% 30.42 in 10.0 mi Calm Calm - N/A   Mostly Cloudy
6:53 AM 35.1 °F - 34.0 °F 96% 30.41 in 10.0 mi Calm Calm - N/A   Clear
7:53 AM 35.1 °F - 34.0 °F 96% 30.40 in 10.0 mi Calm Calm - N/A   Clear
8:53 AM 37.9 °F - 35.1 °F 89% 30.39 in 10.0 mi Calm Calm - N/A   Clear
10:53 AM 42.1 °F 40.2 °F 37.0 °F 82% 30.38 in 10.0 mi NW 3.5 mph - N/A   Partly Cloudy
11:53 AM 43.0 °F 41.3 °F 37.0 °F 80% 30.37 in 10.0 mi WNW 3.5 mph - N/A   Clear
12:53 PM 46.9 °F - 34.0 °F 61% 30.35 in 10.0 mi Variable 4.6 mph - N/A   Clear
1:53 PM 46.9 °F - 34.0 °F 61% 30.31 in 10.0 mi SSE 8.1 mph - N/A   Clear
2:53 PM 48.0 °F - 35.1 °F 61% 30.29 in 10.0 mi SE 5.8 mph - N/A   Clear
3:53 PM 48.0 °F - 35.1 °F 61% 30.28 in 10.0 mi SSE 6.9 mph - N/A   Clear
4:53 PM 48.0 °F - 36.0 °F 63% 30.28 in 10.0 mi Calm Calm - N/A   Partly Cloudy
5:53 PM 46.9 °F - 35.1 °F 63% 30.29 in 10.0 mi Calm Calm - N/A   Overcast
6:53 PM 46.0 °F 43.9 °F 37.0 °F 71% 30.27 in 10.0 mi SSE 4.6 mph - N/A   Overcast
7:53 PM 45.0 °F 42.6 °F 37.0 °F 74% 30.27 in 10.0 mi SSE 4.6 mph - N/A   Overcast
8:53 PM 45.0 °F 42.6 °F 37.0 °F 74% 30.27 in 10.0 mi South 4.6 mph - N/A   Overcast
9:53 PM 44.1 °F - 36.0 °F 73% 30.27 in 10.0 mi Calm Calm - N/A   Overcast
10:53 PM 45.0 °F - 35.1 °F 68% 30.28 in 10.0 mi Calm Calm - N/A   Overcast
11:53 PM 45.0 °F 41.8 °F 36.0 °F 71% 30.29 in 10.0 mi SSW 5.8 mph - N/A   Overcast